Weather in Nugush

Russia / Republic of Bashkortostan     53°02′41″N   56°26′16″E
temp.,
°C
wind,
m/s
gust,
m/s
humid.,
%
clouds,
%
prec.,
mm/h
press.,
hPa
HPBL,
m
25 february, thu
thu2523:00−22nnw51293100 0.1 1024523
02:00−25nnw349898 0.0 102765
05:00−29nnw2210099 0.0 102921
08:00−31nnw12100100 0.0 103119
11:00−25nw229379 0.0 1032199
14:00−21wsw229261 0.0 1032220
17:00−22sw229678 0.0 1031168
20:00−26sse229451 0.0 103219
26 february, fri
fri2623:00−27sse339575 0.0 103143
02:00−25sse3495100 0.0 1030134
05:00−24se3797100 0.1 1029255
08:00−23ese2298100 0.1 102771
11:00−18se3791100 0.3 1026421
14:00−15sse4888100 0.1 1024583
17:00−15s4888100 0.1 1023619
20:00−17se4109192 0.0 1022299
27 february, sat
sat2723:00−21ese339183 0.0 102168
02:00−21e339387 0.0 101875
05:00−19ese479294 0.0 1015170
08:00−16ese51295100 0.8 1011383
11:00−14ese41294100 3.8 1008453
14:00−8se71293100 1.8 1006596
17:00−5se51193100 2.3 1004511
20:00−6e2297100 1.5 100493
28 february, sun
sun2823:00−6ene2296100 2.6 100455
02:00−5se2297100 0.6 100454
05:00−3s2398100 1.5 100496
08:00−4sse2297100 0.5 100333
11:00−2s2396100 0.8 1003221
14:00−1sw35100100 0.8 1004415
17:00−1sw4694100 1.3 1004511
20:00−5ssw229893 0.2 100623
1 march, mon
mon123:00−4s249796 0.9 1008118
02:00−4sse2398100 1.1 1008115
05:00−4s2397100 2.0 1009109
08:00−5s229799 0.6 101023
11:00−3sw229498 0.9 1011233
14:00−3w229597 0.1 1012306
17:00−4wnw239498 0.3 1014270
20:00−11nw229895 0.1 101526